Location: Newark
(7.0858°N, 171.3717°E)
Time: 03:54:50
(UTC+00:00)

N. Korean satellite - Pass Details

Date: 26 September 2021
Orbit: 450 x 495 km, 97.3° (Epoch: 15 October)

Event Time Altitude Azimuth Distance (km) Brightness Sun altitude
Rises 17:19:24 0° 17° (NNE) 2,543 10.5 -16.6°
Reaches altitude 10° 17:21:28 10° 22° (NNE) 1,670 9.6 -16.1°
Maximum altitude 17:25:01 56° 101° (E) 586 7.3 -15.2°
Drops below altitude 10° 17:28:35 10° 180° (S) 1,688 9.3 -14.4°
Sets 17:30:41 0° 184° (S) 2,573 10.2 -13.8°
